Location: Aula-Vintri
(58.3875°N, 22.4322°E)
Time: 05:18:24
(UTC+00:00)

Meteor 1-16 Rocket - Pass Details

Date: 13 October 2019
Orbit: 790 x 908 km, 81.2° (Epoch: 15 November)

Event Time Altitude Azimuth Distance (km) Brightness Sun altitude
Rises 16:52:38 0° 172° (S) 3,414 7.2 -11.4°
Reaches altitude 10° 16:55:09 10° 167° (SSE) 2,464 6.5 -11.7°
Maximum altitude 17:00:27 47° 95° (E) 1,094 4.4 -12.4°
Drops below altitude 10° 17:05:37 10° 23° (NNE) 2,410 6.4 -13.1°
Sets 17:08:03 0° 18° (NNE) 3,333 7.2 -13.4°
